Regional Weather Roundup
Issued by NWS

Home | Current Version | Previous Version | Graphics & Text | Print | Product List | Glossary On
Versions: 1 2 3 4 5 6 7 8 9 10 11 12 13 14 15 16 17 18 19 20 21 22 23 24 25 26 27 28 29 30 31 32 33 34 35 36 37 38 39 40 41 42 43 44 45 46 47 48 49 50
000
ASUS43 KMPX 301410
RWRMN
WEATHER ROUNDUP FOR MINNESOTA
NATIONAL WEATHER SERVICE TWIN CITIES/CHANHASSEN MN
900 AM CDT SAT AUG 30 2014


NOTE: "FAIR" INDICATES FEW OR NO CLOUDS BELOW 12,000 FEET WITH NO
SIGNIFICANT WEATHER AND/OR OBSTRUCTIONS TO VISIBILITY. N/A MEANS
CURRENT SKY AND/OR WEATHER CONDITIONS ARE NOT AVAILABLE.

MNZ060>063-068>070-301500-
   Twin Cities Metro

CITY           SKY/WX    TMP DP  RH WIND       PRES   REMARKS
TWIN CITIES    MOSUNNY   69  64  84 N9        29.83R
ST PAUL        CLOUDY    67  63  87 N7        29.83R
CRYSTAL        MOSUNNY   70  62  76 N10       29.82R
BLAINE         PTSUNNY   70  66  88 NW9       29.83R
LAKEVILLE      MOSUNNY   66  64  94 N10       29.83R
EDEN PRAIRIE   MOSUNNY   70  64  81 N6        29.82S
SOUTH ST PAUL  CLOUDY    67  64  87 NW7       29.82R
LAKE ELMO      CLOUDY    66  64  94 N6        29.84R
$$
MNZ001>005-007-008-013>017-022>024-027-028-301500-
   Northwest Minnesota

CITY           SKY/WX    TMP DP  RH WIND       PRES   REMARKS
BEMIDJI        CLOUDY    57  54  90 NE10      29.92R
HALLOCK        SUNNY     52  48  87 NE5       29.95S
ROSEAU         SUNNY     55  52  88 NE5       29.95S
WARROAD        SUNNY     57  54  88 NE5       29.95S
THIEF RVR FALL CLOUDY    54  52  94 NE6       29.95S
CROOKSTON      SUNNY     54  52  94 N5        29.95F
FOSSTON        CLOUDY    57  55  94 NE8       29.93S
DETROIT LAKES  CLOUDY    61  55  82 NE6       29.90F
MOORHEAD       PTSUNNY   57  57 100 N12       29.92F
PARK RAPIDS    CLOUDY    59  55  87 NE6       29.89F
MAHNOMEN       CLOUDY    59  56  90 NE8       29.90F
$$
MNZ006-009>011-018-025>026-301500-
   North Central Minnesota

CITY           SKY/WX    TMP DP  RH WIND       PRES   REMARKS
BAUDETTE       CLOUDY    57  54  89 NE7       29.94S
FLAG ISLAND    MOSUNNY   59  54  82 NE8       29.93F
INTL FALLS     CLOUDY    60  53  77 NE10      29.92F
WASKISH        CLOUDY    55  55 100 NE6       29.93F
BIG FORK       CLOUDY    57  55  94 N7        29.92S
LONGVILLE      CLOUDY    57  57 100 N6        29.89S
GRAND RAPIDS   CLOUDY    59  55  88 N8        29.89R
CRANE LAKE     CLOUDY    57  54  88 NE6       29.92S
ORR            CLOUDY    57  54  88 N3        29.89R
COOK           CLOUDY    59  55  88 N3        29.90S
WALKER         CLOUDY    57  55  93 NE6       29.90S
$$
MNZ012-019>021-037-301500-
   Northeast Minnesota

CITY           SKY/WX    TMP DP  RH WIND       PRES   REMARKS
DULUTH         CLOUDY    63  59  87 N8        29.86R
ELY            CLOUDY    59  57  94 N5        29.89R
HIBBING        CLOUDY    61  57  87 N8        29.89R
EVELETH        CLOUDY    59  59 100 N3        29.89R
DULUTH HARBOR  CLOUDY    64  61  88 N8        29.84F
TWO HARBORS    CLOUDY    63  57  82 N3        29.83S
SILVER BAY     PTSUNNY   59  59 100 CALM      29.83S
GRAND MARAIS     N/A     60  59  96 SW5       29.83S
G MARAIS ARPRT CLOUDY    59  55  88 N6        29.87S
$$
MNZ029>031-032-039>041-046>048-054>057-064-301500-
   West Central Minnesota

CITY           SKY/WX    TMP DP  RH WIND       PRES   REMARKS
FERGUS FALLS   CLOUDY    61  57  88 N3        29.90S
WHEATON        CLOUDY    57  54  88 NW7       29.93S
MORRIS         CLOUDY    61  59  94 NW9       29.89S
ALEXANDRIA     CLOUDY    62  61  96 N9        29.90R FOG
ELBOW LAKE     CLOUDY    60  59  96 N6        29.89S
WADENA         CLOUDY    59  57  94 N7        29.89S
GLENWOOD       CLOUDY    64  63  94 N5        29.88S
APPLETON       CLOUDY    63  59  88 N13       29.89S
BENSON         CLOUDY    61  61 100 N10       29.88F FOG
ORTONVILLE     CLOUDY    61  55  82 N9        29.91S
MADISON        MOSUNNY   64  61  88 NW9       29.90S
WILLMAR        FOG       63  61  94 NW10      29.89R VSB 1
$$
MNZ033>034-036-042>043-049>051-058-059-301500-
   Central Minnesota

CITY           SKY/WX    TMP DP  RH WIND       PRES   REMARKS
ST CLOUD       PTSUNNY   70  65  84 N6        29.84S
SAUK CENTRE    CLOUDY    64  63  94 NW6       29.87S
PAYNESVILLE    HVY RAIN  64  64  97 W3        29.87R
AITKIN         MIX PCPN  64  61  88 N8        29.86R
PINE RIVER     CLOUDY    59  59 100 N9        29.92S
BRAINERD       CLOUDY    62  61  96 N8        29.87S
STAPLES        CLOUDY    59  57  94 N8        29.89R
LONG PRAIRIE   CLOUDY    61  61 100 NW6       29.88S
LITTLE FALLS   HVY RAIN  64  63  94 N5        29.86S
LITCHFIELD     CLOUDY    68  68 100 N3        29.86S
BUFFALO        PTSUNNY   70  60  71 N5        29.85S
MAPLE LAKE     CLOUDY    69  66  89 CALM      29.86R
$$
MNZ037-044-045-052-053-301500-
   East Central Minnesota

CITY           SKY/WX    TMP DP  RH WIND       PRES   REMARKS
PRINCETON      MOSUNNY   70  64  83 N8        29.85S
MORA           PTSUNNY   64  61  88 N6        29.86S
CAMBRIDGE      PTSUNNY   68  59  73 NW7       29.83R
RUSH CITY      CLOUDY    65  61  88 NE6       29.84R
MOOSE LAKE     CLOUDY    63  59  88 CALM      29.84S
HINCKLEY       CLOUDY    64  61  88 N8        29.85R
CLOQUET        PTSUNNY   63  61  94 N6        29.86R
MCGREGOR       CLOUDY    63  63 100 N5        29.87S
$$
MNZ071>073-080-081-089-090-097-098-301500-
   Southwest Minnesota

CITY           SKY/WX    TMP DP  RH WIND       PRES   REMARKS
MONTEVIDEO     CLOUDY    63  63 100 N6        29.90S
GRANITE FALLS  CLOUDY    61  61 100 W9        29.91R
CANBY          CLOUDY    61  59  95 NW10      29.92S
MARSHALL       CLOUDY    61  57  88 NW13      29.90R
REDWOOD FALLS  CLOUDY    64  63  96 NW7       29.87S
OLIVIA         CLOUDY    63  61  94 NW8       29.87R FOG
PIPESTONE      CLOUDY    63  61  94 N6        29.92S FOG
WINDOM         FOG       63  63 100 W7        29.90R VSB 1/2
WORTHINGTON    CLOUDY    64  63  94 N7        29.93S
JACKSON        CLOUDY    64  63  94 NW7       29.90S
TRACY          FOG       61  61  98 NW5       29.91R VSB 1/2
SLAYTON        CLOUDY    61  61 100 CALM      29.93R FOG
$$
MNZ065>067-074>077-082>085-091>093-301500-
   South Central Minnesota

CITY           SKY/WX    TMP DP  RH WIND       PRES   REMARKS
MANKATO        CLOUDY    68  63  83 NW7       29.85R
NEW ULM        MOSUNNY   64  64 100 NW10G16   29.86S FOG
ST JAMES       CLOUDY    66  64  94 NW9       29.88S FOG
FAIRMONT       CLOUDY    64  55  72 NW9       29.88R
GLENCOE        CLOUDY    69  66  90 NW5       29.84S
FARIBAULT      MOSUNNY   70  64  83 NW6       29.84R
OWATONNA       PTSUNNY   70  64  83 N12       29.84R
WASECA         PTSUNNY   66  61  82 NW7       29.86S
ALBERT LEA     CLOUDY    66  66 100 NW6       29.85R
$$
MNZ078>079-086>088-094>096-301500-
   Southeast Minnesota

CITY           SKY/WX    TMP DP  RH WIND       PRES   REMARKS
ROCHESTER      PTSUNNY   69  65  86 NW9       29.83R
RED WING       CLOUDY    66  64  94 N6        29.80R
STANTON        MOSUNNY   69  64  83 N9        29.82R
DODGE CENTER   PTSUNNY   68  66  94 NW8       29.83S
WINONA         CLOUDY    70  68  94 NW5       29.79R
AUSTIN         CLOUDY    70  66  88 NW9       29.84R
PRESTON        CLOUDY    67  67 100 NW3       29.82S
$$
ABBREVIATIONS USED IN REMARKS
   TC - TEMPERATURES IN CELSIUS
  WCI - WIND CHILL INDEX
   HX - HEAT INDEX
  VSB - VISIBILITY
$$



USA.gov is the U.S. government's official web portal to all federal, state and local government web resources and services.